Weather reports worldwide

Advertisment
Barth, Germany (10180): temperature & dewpoint: 11.01.2021 22:00:00 - 17.01.2021 22:00:00 (CET)Barth, Germany (10180): temperature 5cm & temperature -5cm: 11.01.2021 22:00:00 - 17.01.2021 22:00:00 (CET)Barth, Germany (10180): temperature -20cm & temperature -100cm: 11.01.2021 22:00:00 - 17.01.2021 22:00:00 (CET)Barth, Germany (10180): wind speed & gusts: 11.01.2021 22:00:00 - 17.01.2021 22:00:00 (CET)Barth, Germany (10180): wind direction: 11.01.2021 22:00:00 - 17.01.2021 22:00:00 (CET)Barth, Germany (10180): reduced air pressure: 11.01.2021 22:00:00 - 17.01.2021 22:00:00 (CET)Barth, Germany (10180): visibility: 11.01.2021 22:00:00 - 17.01.2021 22:00:00 (CET)Barth, Germany (10180): sunshine duration: 11.01.2021 22:00:00 - 17.01.2021 22:00:00 (CET)Barth, Germany (10180): precipitation: 11.01.2021 22:00:00 - 17.01.2021 22:00:00 (CET)
Date & Time tt [°C] td [°C] tt 5cm [°C] tt -5cm [°C] tt -20cm [°C] tt -100cm [°C] ff [km/h] ff [kn] fx [km/h] fx [kn] dd ppp [hPa] vv [km] sd [min] rr [mm]
17.01.2021 22:00:00 -2,4 -3,2 -4,3 0,0 1,0 5,6 6 4 9 5 SSE 1021,3 9 0 0,0
17.01.2021 21:00:00 -1,9 -2,8 -3,3 0,0 1,0 5,7 7 4 13 7 SSE 1021,6 9 0 0,0
17.01.2021 20:00:00 -1,4 -2,6 -2,3 0,0 1,0 5,7 8 4 12 6 SE 1021,5 13 0 0,0
17.01.2021 19:00:00 -1,2 -2,4 -1,5 0,0 1,0 5,7 7 4 11 6 SSE 1021,6 13 0 0,0
17.01.2021 18:00:00 -0,9 -2,3 -1,2 0,0 1,0 5,7 9 5 13 7 SE 1021,5 16 0 0,0
17.01.2021 17:00:00 -0,8 -2,3 -1,2 0,0 1,0 5,7 7 4 9 5 SSE 1021,2 18 0 0,0
17.01.2021 16:00:00 -0,4 -2,1 -0,7 0,0 1,0 5,7 7 4 10 5 SSE 1020,9 26 0 0,0
17.01.2021 15:00:00 -0,1 -2,3 -0,2 0,0 1,0 5,7 6 4 11 6 SSE 1020,5 27 0 0,0
17.01.2021 14:00:00 0,0 -2,4 0,4 0,0 1,0 5,7 8 5 14 7 SE 1020,3 28 0 0,0
17.01.2021 13:00:00 -0,2 -3,0 0,2 0,0 1,0 5,7 6 3 8 4 SSE 1020,5 29 0 0,0
17.01.2021 12:00:00 -0,6 -3,5 -0,1 0,0 1,0 5,7 5 3 8 5 S 1020,6 30 0 0,0
17.01.2021 11:00:00 -1,2 -3,5 -0,8 0,0 1,0 5,7 5 3 9 5 SSW 1020,3 21 0 0,0
17.01.2021 10:00:00 -1,5 -3,5 -1,3 0,0 1,1 5,7 2 1 10 6 S 1019,5 22 0 0,0
17.01.2021 09:00:00 -1,9 -3,4 -1,9 -0,1 1,1 5,7 5 3 8 5 SSW 1019,1 20 0 0,0
17.01.2021 08:00:00 -2,8 -3,6 -3,3 -0,1 1,1 5,7 4 2 8 5 S 1018,8 17 0 0,0
17.01.2021 07:00:00 -1,8 -3,2 -2,0 0,0 1,1 5,7 3 2 6 3 ESE 1018,3 24 0 0,0
17.01.2021 06:00:00 -1,8 -3,1 -1,9 0,0 1,1 5,7 6 3 9 5 WSW 1018,1 28 0 0,0
17.01.2021 05:00:00 -2,0 -3,9 -2,0 0,0 1,1 5,7 3 1 6 3 W 1018,1 36 0 0,0
17.01.2021 04:00:00 -2,6 -4,1 -2,8 -0,1 1,1 5,7 3 1 10 5 WSW 1018,0 51 0 0,0
17.01.2021 03:00:00 -2,4 -4,1 -3,1 -0,1 1,1 5,7 7 4 10 5 W 1018,1 35 0 0,0
17.01.2021 02:00:00 -1,7 -3,7 -2,5 -0,1 1,1 5,8 4 2 12 6 NNW 1018,6 46 0 0,0
17.01.2021 01:00:00 -2,7 -4,2 -4,0 -0,1 1,1 5,8 7 4 17 9 WNW 1019,0 50 0 0,0
17.01.2021 00:00:00 -1,6 -3,6 -2,9 0,0 1,1 5,8 6 3 11 6 WSW 1019,4 39 0 0,0
16.01.2021 23:00:00 -1,6 -3,7 -2,2 0,0 1,1 5,8 3 2 9 5 WNW 1019,3 56 0 0,0
16.01.2021 22:00:00 -1,4 -4,1 -3,9 0,0 1,1 5,8 5 3 13 7 N 1019,4 65 0 0,0
16.01.2021 21:00:00 -1,2 -4,1 -1,4 0,0 1,1 5,8 7 4 13 7 WNW 1019,9 67 0 0,0
16.01.2021 20:00:00 -2,1 -4,3 -3,4 0,0 1,1 5,8 5 3 21 11 WNW 1019,8 63 0 0,0
16.01.2021 19:00:00 -0,7 -4,0 -1,2 0,0 1,1 5,8 9 5 20 11 WNW 1019,9 71 0 0,0
16.01.2021 18:00:00 -0,6 -3,8 -1,0 0,0 1,1 5,8 9 5 20 11 WNW 1020,5 75 0 0,0
16.01.2021 17:00:00 -0,8 -4,0 -1,0 0,0 1,2 5,8 13 7 19 10 W 1021,0 73 0 0,0
16.01.2021 16:00:00 -1,0 -4,2 -1,1 0,0 1,2 5,8 11 6 22 12 WNW 1021,2 59 0 0,0
16.01.2021 15:00:00 -0,9 -4,0 -0,8 0,0 1,2 5,8 10 6 24 13 NW 1021,4 61 1 0,0
16.01.2021 14:00:00 -1,2 -4,2 -0,9 0,0 1,2 5,8 14 8 25 14 NW 1021,7 64 0 0,0
16.01.2021 13:00:00 -1,9 -4,9 -1,3 0,0 1,2 5,8 16 8 23 12 WNW 1022,4 64 0 0,0
16.01.2021 12:00:00 -2,2 -5,1 -1,7 0,0 1,2 5,8 12 7 23 12 NW 1023,0 68 0 0,0
16.01.2021 11:00:00 -2,4 -5,7 -1,9 0,0 1,2 5,8 13 7 24 13 NW 1023,6 73 1 0,0
16.01.2021 10:00:00 -2,7 -6,3 -2,6 -0,1 1,2 5,8 13 7 20 11 NW 1023,7 75 0 0,0
16.01.2021 09:00:00 -3,0 -6,7 -3,5 0,0 1,2 5,8 10 6 25 13 NNW 1023,9 53 0 0,0
16.01.2021 08:00:00 -2,2 -6,2 -2,2 0,0 1,2 5,8 15 8 20 11 NW 1023,9 72 0 0,0
16.01.2021 07:00:00 -1,9 -6,3 -2,0 0,0 1,2 5,8 13 7 26 14 NW 1024,2 66 0 0,0
16.01.2021 06:00:00 -1,1 -6,0 -1,4 0,0 1,3 5,8 15 8 28 15 NW 1024,4 70 0 0,0
16.01.2021 05:00:00 -0,8 -6,8 -1,1 0,0 1,3 5,8 14 8 26 14 NNW 1024,7 75 0 0,0
16.01.2021 04:00:00 -0,7 -6,4 -1,0 0,1 1,3 5,9 12 7 22 12 NNW 1024,9 75 0 0,0
16.01.2021 03:00:00 -0,9 -4,4 -1,3 0,1 1,3 5,9 5 3 21 11 NNE 1025,2 63 0 0,0
16.01.2021 02:00:00 -0,7 -4,6 -1,0 0,1 1,3 5,9 8 4 16 8 NNW 1025,4 59 0 0,0
16.01.2021 01:00:00 -1,1 -3,7 -1,5 0,1 1,3 5,9 6 4 11 6 NE 1025,6 43 0 0,0
16.01.2021 00:00:00 -0,5 -4,5 -1,0 0,1 1,3 5,9 10 6 19 10 NNW 1025,8 70 0 0,0
15.01.2021 23:00:00 -0,6 -5,0 -0,9 0,1 1,3 5,9 12 6 24 13 NW 1026,0 67 0 0,0
15.01.2021 22:00:00 -0,6 -6,4 -0,9 0,1 1,3 5,9 12 7 22 12 NNW 1026,1 66 0 0,0
15.01.2021 21:00:00 -0,8 -5,9 -1,0 0,1 1,4 5,9 11 6 22 12 NNW 1026,2 72 0 0,0
15.01.2021 20:00:00 -1,1 -6,5 -1,4 0,1 1,4 5,9 9 5 27 15 NNW 1026,3 70 0 0,0
15.01.2021 19:00:00 -1,4 -6,9 -1,5 0,1 1,4 5,9 16 9 28 15 NNW 1026,3 75 0 0,0
15.01.2021 18:00:00 -1,5 -6,8 -1,8 0,1 1,4 5,9 15 8 28 15 NNW 1026,3 75 0 0,0
15.01.2021 17:00:00 -1,9 -7,7 -2,3 0,1 1,4 5,9 16 9 31 17 NNW 1026,0 75 0 0,0
15.01.2021 16:00:00 -1,9 -7,2 -2,0 0,2 1,4 5,9 14 7 27 15 N 1025,7 71 15 0,0
15.01.2021 15:00:00 -2,0 -7,7 -2,3 0,2 1,5 5,9 14 8 32 17 NNW 1025,5 75 2 0,0
15.01.2021 14:00:00 -1,5 -6,3 -1,3 0,2 1,5 5,9 17 9 30 16 N 1025,1 75 8 0,0
15.01.2021 13:00:00 -1,2 -6,4 -0,9 0,2 1,5 5,9 17 9 31 17 NNW 1025,2 52 15 0,0
15.01.2021 12:00:00 -1,7 -6,8 -1,3 0,2 1,5 5,9 18 10 31 17 N 1025,3 60 0 0,0
15.01.2021 11:00:00 -1,0 -5,7 -0,7 0,2 1,5 5,9 21 11 33 18 N 1025,0 70 11 0,0
15.01.2021 10:00:00 -0,5 -4,5 -0,7 0,2 1,5 5,9 19 10 31 17 N 1024,2 61 0 0,0
15.01.2021 09:00:00 -0,1 -3,7 -0,4 0,2 1,6 5,9 11 6 21 11 NNW 1023,6 40 0 0,0
15.01.2021 08:00:00 -0,2 -4,7 -0,5 0,2 1,6 5,9 11 6 22 12 N 1023,2 62 0 0,0
15.01.2021 07:00:00 -0,1 -4,5 -0,5 0,2 1,6 5,9 13 7 25 14 NNW 1022,6 63 0 0,0
15.01.2021 06:00:00 -0,1 -4,4 -0,4 0,2 1,7 5,9 16 9 29 16 N 1022,4 55 0 0,0
15.01.2021 05:00:00 0,1 -3,9 -0,2 0,2 1,7 5,9 13 7 31 17 NW 1022,3 33 0 0,0
15.01.2021 04:00:00 0,0 -4,2 -0,3 0,2 1,8 5,9 17 9 30 16 NNW 1022,4 63 0 0,0
15.01.2021 03:00:00 0,1 -3,4 -0,1 0,3 1,9 5,9 12 7 27 14 NNW 1022,4 66 0 0,0
15.01.2021 02:00:00 0,4 -2,8 0,2 0,5 1,9 5,9 14 7 25 14 NNW 1022,1 61 0 0,0
15.01.2021 01:00:00 0,9 -2,6 0,6 0,7 2,0 5,9 10 6 24 13 NNW 1022,2 75 0 0,0
15.01.2021 00:00:00 1,3 -2,2 0,8 0,8 2,0 5,9 11 6 19 11 NNW 1022,3 57 0 0,0
14.01.2021 23:00:00 1,4 -2,6 0,9 0,9 2,0 5,9 9 5 18 10 NNE 1022,1 68 0 0,0
14.01.2021 22:00:00 1,6 -1,6 1,2 0,9 2,1 5,9 10 5 22 12 N 1021,8 56 0 0,0
14.01.2021 21:00:00 1,8 -1,6 1,2 0,9 2,1 5,9 9 5 20 11 NNE 1021,5 54 0 0,0
14.01.2021 20:00:00 1,8 -1,4 1,0 0,8 2,2 6,0 7 4 14 7 N 1021,3 57 0 0,0
14.01.2021 19:00:00 2,0 -1,1 0,9 1,1 2,3 6,0 9 5 26 14 NNE 1021,0 58 0 0,0
14.01.2021 18:00:00 2,4 -1,0 1,7 1,4 2,3 6,0 14 8 29 16 NNE 1020,7 50 0 0,0
14.01.2021 17:00:00 2,3 -0,7 0,9 1,3 2,3 6,0 13 7 24 13 NNE 1020,3 49 0 0,1
14.01.2021 16:00:00 2,3 0,4 1,6 2,0 2,3 6,0 15 8 29 16 N 1019,7 19 0 0,1
14.01.2021 15:00:00 2,6 0,2 1,8 2,1 2,3 6,0 18 10 29 16 NNE 1019,1 17 0 0,1
14.01.2021 14:00:00 2,8 0,4 2,1 2,1 2,2 6,0 15 8 29 15 NNE 1018,6 41 0 0,0
14.01.2021 13:00:00 2,7 0,4 1,9 1,9 2,1 6,0 13 7 27 14 NNE 1018,2 55 0 0,0
14.01.2021 12:00:00 2,7 0,1 2,3 1,8 2,1 6,0 14 7 26 14 N 1018,0 40 0 0,0
14.01.2021 11:00:00 2,5 -0,3 2,2 1,7 2,0 6,0 14 7 27 14 N 1017,4 48 0 0,0
14.01.2021 10:00:00 2,4 -0,7 2,0 1,4 2,0 6,0 14 7 27 15 N 1016,6 49 0 0,0
14.01.2021 09:00:00 2,2 -0,8 1,8 1,2 2,0 6,0 13 7 29 16 N 1015,7 45 0 0,0
14.01.2021 08:00:00 2,2 -0,8 1,7 1,2 2,0 6,0 17 9 29 16 N 1014,6 55 0 0,0
14.01.2021 07:00:00 2,2 -0,9 1,7 1,2 2,0 6,0 15 8 36 19 N 1013,8 46 0 0,0
14.01.2021 06:00:00 2,3 -0,7 1,6 1,1 2,0 6,0 16 9 37 20 N 1012,8 46 0 0,0
14.01.2021 05:00:00 2,4 -0,2 1,5 1,2 2,0 6,0 24 13 41 22 NNE 1011,7 46 0 0,0
14.01.2021 04:00:00 2,3 0,8 1,6 1,2 1,9 6,0 24 13 45 24 NNE 1010,2 21 0 0,1
14.01.2021 03:00:00 2,4 1,1 1,8 1,2 1,9 6,0 24 13 44 24 NNE 1008,6 41 0 0,0
14.01.2021 02:00:00 2,8 0,7 1,6 0,8 1,9 6,0 19 10 40 21 NE 1006,5 46 0 0,1
14.01.2021 01:00:00 2,1 0,8 1,2 0,5 2,0 6,0 14 8 26 14 NNE 1004,5 42 0 0,0
14.01.2021 00:00:00 1,6 0,4 0,5 0,5 2,0 6,0 11 6 24 13 NE 1002,5 62 0 0,0
13.01.2021 23:00:00 0,4 0,0 -0,1 0,6 2,1 6,0 12 6 32 17 NE 1000,4 59 0 0,8
13.01.2021 22:00:00 2,2 1,0 1,4 0,9 2,1 6,0 17 9 29 16 N 998,6 22 0 0,3
13.01.2021 21:00:00 1,0 0,3 0,1 0,7 2,2 6,0 14 8 33 18 NW 997,7 4,5 0 0,8
13.01.2021 20:00:00 1,3 0,1 0,6 0,9 2,2 6,0 21 11 41 22 WNW 997,5 37 0 0,0
13.01.2021 19:00:00 1,5 -0,1 0,7 0,8 2,3 6,0 28 15 54 29 WNW 997,0 39 0 0,0
13.01.2021 18:00:00 1,5 0,0 0,7 0,5 2,5 6,0 27 14 46 25 WNW 996,6 26 0 0,2
13.01.2021 17:00:00 0,8 -0,1 0,1 0,6 2,6 6,0 16 9 28 15 W 996,6 17 0 1,5
13.01.2021 16:00:00 1,6 0,5 1,3 1,9 2,7 6,0 16 9 32 17 SW 996,6 55 5 0,0
13.01.2021 15:00:00 1,6 0,2 1,0 2,0 2,7 6,0 29 15 56 30 WSW 997,5 55 0 1,0
13.01.2021 14:00:00 2,3 1,1 1,7 2,3 2,7 6,0 25 14 42 23 SW 997,9 10 0 1,8
13.01.2021 13:00:00 2,3 0,9 1,8 2,5 2,7 6,0 28 15 49 26 SW 999,5 10 0 1,0
13.01.2021 12:00:00 3,1 0,5 2,3 2,9 2,6 6,0 26 14 44 24 SW 1001,0 11 0 0,0
13.01.2021 11:00:00 3,4 0,8 3,3 3,0 2,5 6,0 25 13 40 22 SW 1001,9 47 2 0,0
13.01.2021 10:00:00 3,1 0,7 2,6 2,2 2,4 6,0 27 15 43 23 WSW 1002,5 46 0 0,0
13.01.2021 09:00:00 2,9 0,6 2,3 1,9 2,4 6,0 33 18 47 25 WSW 1002,8 47 0 0,0
13.01.2021 08:00:00 2,9 0,9 2,0 1,8 2,4 6,0 24 13 46 25 WSW 1002,9 43 0 0,0
13.01.2021 07:00:00 3,0 0,7 2,2 1,8 2,3 6,0 30 16 42 23 W 1003,1 40 0 0,0
13.01.2021 06:00:00 3,0 0,5 2,2 1,6 2,3 6,0 27 14 49 26 W 1003,3 41 0 0,0
13.01.2021 05:00:00 3,1 0,8 2,4 1,8 2,3 6,0 29 15 45 24 W 1003,2 37 0 0,0
13.01.2021 04:00:00 3,3 0,4 2,4 1,7 2,2 6,0 25 13 44 24 W 1003,2 46 0 0,0
13.01.2021 03:00:00 3,6 0,2 2,6 1,5 2,2 6,0 28 15 49 26 W 1003,2 38 0 0,0
13.01.2021 02:00:00 3,2 0,8 2,2 1,3 2,1 6,0 26 14 45 24 W 1002,9 38 0 0,0
13.01.2021 01:00:00 3,1 0,2 2,0 0,8 2,2 6,0 25 14 37 20 W 1003,0 50 0 0,0
13.01.2021 00:00:00 2,8 0,0 1,5 0,5 2,3 6,0 25 14 45 24 W 1002,9 39 0 0,0
12.01.2021 23:00:00 2,3 -0,6 0,3 0,4 2,4 6,0 22 12 37 20 W 1002,7 41 0 0,0
12.01.2021 22:00:00 1,7 -0,6 -0,2 0,4 2,5 6,0 16 9 28 15 W 1002,5 41 0 0,0
12.01.2021 21:00:00 1,6 -0,9 -0,3 0,3 2,7 6,0 16 9 29 15 W 1002,1 57 0 0,0
12.01.2021 20:00:00 0,9 -0,7 -0,5 0,5 2,9 6,0 11 6 23 12 W 1001,2 65 0 0,0
12.01.2021 19:00:00 1,8 0,2 0,4 1,3 3,1 6,0 16 9 25 14 WNW 1000,5 66 0 0,1
12.01.2021 18:00:00 0,9 0,4 0,5 1,6 3,2 6,0 16 9 37 20 WSW 1000,0 40 0 0,6
12.01.2021 17:00:00 2,4 -0,4 1,7 2,0 3,4 6,0 14 7 20 11 SW 999,7 54 0 0,0
12.01.2021 16:00:00 2,3 -0,3 0,4 2,3 3,4 6,0 10 5 28 15 SW 999,4 50 47 0,0
12.01.2021 15:00:00 3,8 0,0 3,6 3,1 3,4 6,0 17 9 26 14 W 999,6 63 60 0,0
12.01.2021 14:00:00 4,1 -0,8 5,3 3,5 3,2 6,0 14 8 23 12 W 999,7 56 60 0,0
12.01.2021 13:00:00 4,2 0,0 5,7 3,5 3,0 6,0 15 8 22 12 W 999,6 57 60 0,0
12.01.2021 12:00:00 3,6 0,6 3,3 3,0 2,9 6,0 10 5 16 9 WNW 999,9 67 56 0,0
12.01.2021 11:00:00 2,8 1,2 4,0 2,0 3,0 6,0 3 2 8 5 WSW 999,9 74 22 0,0
12.01.2021 10:00:00 2,2 1,1 0,3 2,2 3,0 6,0 6 3 11 6 W 999,7 63 0 0,0
12.01.2021 09:00:00 2,2 1,5 1,6 2,4 3,1 6,0 8 4 11 6 W 999,2 62 0 0,0
12.01.2021 08:00:00 2,4 1,4 1,8 2,6 3,1 6,0 8 4 17 9 W 998,9 68 0 0,0
12.01.2021 07:00:00 2,9 1,9 2,3 3,0 3,1 6,0 11 6 26 14 W 998,4 65 0 0,2
12.01.2021 06:00:00 3,7 2,4 3,2 3,5 3,0 6,0 21 11 48 26 NW 997,7 17 0 0,8
12.01.2021 05:00:00 4,7 3,6 4,1 3,3 3,0 6,0 28 15 53 29 SW 996,7 13 0 0,7
12.01.2021 04:00:00 4,1 2,9 3,5 3,0 2,9 6,0 31 17 53 29 SSW 997,5 13 0 0,9
12.01.2021 03:00:00 3,8 2,5 3,2 2,9 2,9 6,0 31 17 48 26 SSW 998,5 18 0 0,5
12.01.2021 02:00:00 3,6 2,3 2,9 2,7 2,8 6,0 31 17 49 26 SSW 999,5 14 0 1,2
12.01.2021 01:00:00 3,4 2,1 2,8 2,7 2,8 6,1 33 18 50 27 SSW 1000,5 9 0 0,6
12.01.2021 00:00:00 3,5 2,1 2,8 2,6 2,8 6,1 30 16 49 27 SSW 1001,7 17 0 0,4
11.01.2021 23:00:00 3,5 2,1 2,9 2,6 2,8 6,1 29 16 50 27 SSW 1002,9 10 0 0,0
11.01.2021 22:00:00 3,2 2,0 2,7 2,5 2,7 6,1 31 17 48 26 SSW 1004,1 10 0 0,0

tt = temperature
td = dewpoint
tt 5cm = temperature 5cm
tt -5cm = temperature -5cm
tt -20cm = temperature -20cm
tt -100cm = temperature -100cm
ff = wind speed
fx = gusts
dd = wind direction
ppp = reduced air pressure
vv = visibility
sd = sunshine duration
rr = precipitation

Next stations